Temperature
1 1 1 1 1 1 1 1 1 1 2 2 2 2 2 3 3 3 3 4 4 4 4 4 4 4 4 4 4 4 4 4 4 4 4 4 4 4
0 0 0 1 1 1 1 1 1 1 1 1 1 2 2 2 2 2 3 3 3 3 4 4 4 4 4 4 4 4 4 4 4 4 3 3 3 3
-0 0 0 0 0 0 0 0 1 0 0 1 1 1 1 1 2 2 2 2 3 3 3 3 3 3 3 3 3 3 3 3 3 3 3 3 3 3
-1 -0 -0 -0 -0 -0 -0 -0 0 0 -0 0 0 0 1 1 1 1 1 2 2 2 2 2 2 3 3 2 3 3 3 3 3 3 2 2 2 2
-1 -1 -1 -1 -1 -1 -1 -1 -1 -0 -0 -0 -0 -0 0 0 0 1 1 1 1 1 2 2 2 2 2 2 2 2 2 2 2 2 2 2 2 2
-1 -1 -1 -1 -1 -1 -1 -1 -1 -1 -1 -1 -1 -1 -1 -0 -0 -0 -0 -0 0 1 1 1 1 1 1 1 1 1 1 1 2 2 2 2 2 2
-2 -2 -2 -2 -2 -2 -2 -1 -1 -1 -1 -1 -1 -1 -1 -1 -1 -1 -1 -1 -1 -0 -0 0 0 0 0 1 1 1 1 1 1 1 1 1 1 1
-2 -2 -2 -2 -2 -2 -2 -2 -2 -2 -2 -2 -2 -2 -2 -1 -1 -1 -1 -1 -1 -1 -1 -1 -1 -1 -0 -0 0 0 0 0 0 0 1 1 1 1
-2 -2 -2 -2 -2 -2 -2 -2 -2 -2 -2 -2 -2 -2 -2 -2 -2 -2 -2 -2 -2 -2 -2 -1 -1 -1 -1 -1 -0 -0 -0 -0 -0 -0 0 0 0 0
-3 -3 -3 -2 -2 -2 -2 -2 -2 -2 -2 -2 -2 -2 -2 -2 -2 -2 -2 -2 -2 -2 -2 -2 -2 -2 -2 -1 -1 -1 -1 -1 -1 -1 -1 -1 -0 -0
-3 -3 -3 -3 -3 -2 -2 -3 -3 -3 -2 -2 -2 -2 -2 -2 -2 -3 -3 -3 -3 -3 -3 -3 -3 -3 -2 -2 -2 -2 -2 -2 -2 -1 -1 -1 -1 -1
-3 -3 -3 -3 -3 -3 -3 -3 -3 -3 -3 -3 -3 -3 -3 -3 -3 -3 -3 -3 -3 -3 -3 -3 -3 -3 -4 -3 -3 -3 -3 -2 -2 -2 -2 -2 -2 -2
-3 -3 -3 -3 -3 -3 -3 -3 -3 -3 -3 -3 -3 -3 -3 -3 -3 -3 -3 -3 -4 -4 -4 -4 -4 -4 -4 -4 -4 -4 -4 -3 -3 -3 -3 -3 -3 -3
-3 -3 -3 -3 -3 -3 -3 -3 -3 -3 -3 -3 -4 -4 -4 -4 -4 -4 -4 -4 -4 -4 -4 -4 -4 -4 -5 -5 -5 -4 -4 -4 -4 -4 -3 -3 -3 -3
-4 -4 -4 -4 -4 -4 -4 -4 -3 -3 -4 -4 -4 -4 -4 -4 -4 -4 -4 -4 -4 -4 -4 -4 -4 -5 -5 -5 -5 -5 -5 -5 -4 -4 -4 -4 -4 -4
-4 -4 -4 -4 -4 -4 -4 -4 -4 -4 -4 -4 -4 -4 -4 -4 -4 -4 -4 -4 -5 -5 -5 -5 -5 -5 -5 -5 -5 -5 -5 -5 -5 -5 -5 -4 -4 -4
-5 -5 -5 -5 -4 -4 -4 -4 -4 -4 -4 -4 -4 -4 -5 -5 -5 -5 -5 -5 -5 -5 -5 -5 -5 -5 -5 -5 -5 -5 -5 -5 -5 -5 -5 -5 -5 -4
-5 -5 -5 -5 -5 -5 -5 -5 -5 -5 -5 -5 -5 -5 -5 -5 -5 -5 -5 -5 -5 -5 -5 -5 -5 -5 -5 -5 -5 -5 -6 -6 -6 -5 -5 -5 -5 -5
-5 -5 -5 -5 -5 -5 -5 -5 -5 -5 -5 -5 -5 -5 -5 -5 -5 -5 -5 -6 -6 -6 -6 -6 -6 -6 -6 -6 -6 -6 -6 -6 -6 -6 -6 -6 -5 -5
-6 -6 -5 -5 -5 -5 -5 -5 -5 -5 -5 -5 -5 -5 -6 -6 -6 -6 -6 -6 -6 -6 -6 -6 -6 -6 -6 -6 -6 -6 -6 -6 -6 -6 -6 -6 -6 -5
-6 -6 -6 -6 -6 -6 -6 -6 -6 -6 -6 -6 -6 -6 -6 -6 -6 -6 -6 -6 -6 -6 -6 -6 -6 -6 -6 -6 -6 -6 -6 -6 -6 -6 -6 -6 -6 -6
-6 -6 -6 -6 -6 -6 -6 -6 -6 -6 -6 -6 -6 -6 -6 -6 -6 -6 -6 -6 -6 -6 -6 -6 -6 -6 -6 -6 -6 -6 -6 -6 -6 -6 -6 -6 -6 -6
-7 -6 -6 -6 -6 -6 -6 -6 -6 -6 -6 -6 -6 -6 -6 -6 -6 -6 -6 -6 -6 -6 -6 -7 -7 -7 -7 -7 -7 -7 -7 -6 -6 -6 -6 -6 -6 -6
Wind_Speed
4 4 4 3 4 4 4 4 4 5 5 4 3 3 3 4 4 4 4 4 5 5 4 4 4 5 4 4 4 4 5 6 6 6 6 6 7 7
3 4 4 4 4 3 4 4 5 5 5 4 4 5 4 4 5 5 4 5 4 4 4 4 5 6 4 4 4 4 5 5 5 6 7 7 6 7
4 5 5 5 4 4 4 4 4 4 6 6 5 5 5 5 4 4 4 4 4 3 4 5 6 5 3 4 4 5 4 4 5 5 6 6 6 7
5 5 5 4 5 4 4 5 4 5 5 7 5 4 5 5 4 4 4 4 3 2 3 4 4 3 3 4 4 4 4 4 4 5 5 5 6 7
5 6 6 5 5 5 5 4 4 4 5 5 6 4 4 3 3 3 4 3 3 2 3 3 3 3 3 3 3 3 3 4 4 4 4 5 6 6
5 6 6 6 6 6 5 4 4 4 4 5 4 4 3 3 2 3 2 2 2 2 3 3 2 2 2 3 3 3 3 4 4 4 4 4 5 6
6 6 6 6 7 6 5 4 4 4 4 4 4 3 3 2 2 2 2 3 3 2 3 3 3 2 2 2 1 2 3 3 4 3 3 4 5 6
5 5 5 5 6 7 7 6 5 5 5 4 4 4 4 4 3 2 2 2 3 2 3 3 2 2 3 3 3 3 3 3 3 3 3 4 5 6
5 5 4 4 5 5 6 6 6 6 6 5 5 5 5 4 3 3 3 3 3 4 3 3 3 3 3 4 3 2 2 2 3 3 4 5 5 6
4 5 5 5 4 4 4 4 4 4 4 4 4 5 4 4 3 3 3 3 3 2 3 2 3 3 4 4 2 2 3 3 3 4 4 5 6 6
5 4 5 5 5 4 4 4 4 3 3 4 4 4 3 2 2 2 2 2 2 2 2 2 2 3 4 3 2 3 3 3 3 4 5 6 6 7
4 4 5 5 5 5 4 4 4 3 2 1 2 2 2 2 2 2 2 2 2 2 1 2 2 2 2 2 3 4 4 3 4 5 5 6 6 6
4 4 3 4 5 5 4 4 4 3 3 2 1 1 1 1 1 1 2 2 3 2 2 2 2 2 2 2 4 4 4 4 5 5 5 6 7 6
4 4 3 3 4 4 3 2 2 2 2 1 1 1 1 1 1 1 1 1 3 3 3 3 2 2 2 3 3 3 4 5 5 4 5 6 6 7
4 4 3 3 3 3 2 1 2 2 2 2 2 1 1 1 0 0 1 1 2 2 2 3 3 2 3 3 3 4 5 4 4 3 4 5 5 6
3 3 3 3 2 2 1 1 1 1 2 2 2 1 1 0 0 1 1 1 1 2 2 2 2 2 2 3 3 4 4 3 3 4 5 5 6 5
2 2 1 1 1 0 1 1 1 1 2 1 1 1 1 1 1 1 1 1 1 1 2 2 2 2 3 3 3 3 3 4 4 4 4 5 5 5
2 1 1 1 1 1 1 1 1 1 1 1 2 2 1 1 1 0 1 1 1 1 2 2 1 2 2 2 2 3 3 3 4 4 4 4 5 5
1 2 2 1 1 1 1 1 1 1 1 2 2 2 1 1 1 1 1 1 1 1 2 2 2 1 2 3 2 2 3 3 3 4 4 4 5 5
1 2 1 1 1 1 1 1 1 1 1 1 1 1 2 1 1 1 1 1 1 1 2 2 2 2 2 3 2 3 4 3 3 3 4 4 4 5
2 2 2 1 1 1 1 1 1 1 1 1 1 1 2 2 1 1 1 1 1 1 2 2 3 3 2 1 2 2 3 4 4 4 4 4 4 4
2 2 2 2 1 1 1 1 1 1 1 1 1 1 1 1 2 1 1 1 1 1 2 2 2 2 1 1 1 2 3 4 4 4 4 4 3 3
2 2 2 2 2 1 1 1 2 1 1 2 2 2 2 1 1 1 1 1 1 1 1 1 2 2 1 1 1 2 3 4 3 4 4 4 5 6
Wind_Direction
262 260 264 271 270 269 269 269 271 278 281 280 284 291 306 302 312 303 301 317 317 318 318 312 310 317 310 317 319 321 324 324 318 309 298 298 296 297
267 260 260 267 269 268 269 269 268 271 278 290 287 291 296 295 298 296 297 307 300 315 316 309 307 304 296 305 311 314 315 311 308 310 302 292 296 301
267 261 259 263 266 265 264 264 264 265 269 283 285 283 283 286 291 293 296 298 295 301 299 305 302 288 289 294 303 307 304 305 305 298 300 307 305 302
260 262 262 263 261 264 264 261 263 264 266 276 283 283 280 278 286 294 299 295 289 290 296 311 304 287 285 287 296 301 303 306 305 302 300 306 311 311
257 258 261 263 261 263 263 265 268 270 265 266 275 281 282 280 286 292 291 291 301 300 301 311 299 285 285 289 300 305 311 308 303 299 302 303 302 303
262 261 261 260 262 264 262 260 265 269 266 260 265 279 286 289 284 290 297 312 316 321 330 325 324 307 289 295 304 319 319 317 314 310 307 300 298 300
264 264 264 264 267 269 267 263 257 256 257 256 262 270 276 286 274 278 287 310 325 322 327 318 315 311 316 315 301 322 315 319 323 317 311 309 304 301
272 272 270 259 263 265 264 264 257 250 251 252 254 262 273 279 273 264 273 303 313 330 325 323 322 315 319 328 332 324 315 321 331 333 324 317 313 310
273 274 274 269 267 264 259 258 254 250 250 249 248 256 269 270 266 263 273 290 301 310 312 312 322 319 328 333 332 330 338 340 348 351 351 339 327 320
274 274 275 274 268 267 263 264 269 264 252 246 243 254 267 270 258 258 273 295 307 305 301 300 323 327 330 319 336 347 354 354 350 344 340 338 335 329
280 274 272 274 275 263 257 258 265 271 256 242 244 250 263 263 245 243 250 258 290 304 319 303 312 325 326 315 334 356 352 344 338 336 336 337 333 328
286 279 270 274 273 259 253 249 252 264 257 265 249 243 244 232 220 239 247 248 279 290 304 300 308 327 320 323 330 327 331 339 341 336 333 334 330 323
282 284 287 291 280 270 257 248 250 256 236 228 225 229 229 225 217 242 255 253 260 269 271 282 289 298 285 300 315 317 318 325 326 325 334 342 337 326
277 281 289 293 282 275 268 262 252 251 220 208 215 218 217 234 248 257 266 285 288 280 266 266 267 264 275 292 297 308 320 320 320 321 328 335 333 332
278 289 294 288 275 270 280 261 244 230 203 209 223 233 242 236 228 289 334 345 334 311 274 267 256 253 263 274 284 297 311 317 316 319 327 327 322 320
284 285 277 273 273 268 257 228 226 213 203 213 224 235 223 203 223 263 295 336 357 356 358 333 281 264 270 278 275 285 296 296 306 316 321 320 318 314
295 284 284 295 299 286 234 211 210 191 187 197 201 198 199 219 244 262 268 283 291 314 334 357 353 330 298 280 274 276 288 298 299 309 315 316 314 315
284 254 262 274 281 260 238 229 212 197 190 194 196 197 208 218 229 268 257 255 266 293 309 319 335 333 326 326 275 264 286 298 307 309 306 309 312 319
261 260 257 256 256 249 238 226 227 213 192 192 198 204 208 213 219 232 242 255 288 299 310 313 310 303 306 313 321 303 296 306 311 314 314 311 308 315
286 271 267 264 256 249 246 237 219 198 193 196 199 201 197 200 211 226 244 249 287 304 316 319 314 301 290 296 299 313 312 298 302 307 314 317 312 309
296 289 280 268 252 244 246 235 217 211 211 209 208 208 201 200 213 231 243 256 285 292 298 312 324 325 320 310 304 314 330 331 311 299 303 310 315 319
290 292 288 278 266 256 245 231 224 222 212 210 212 210 207 209 219 232 241 258 274 289 307 320 327 326 316 289 311 326 334 342 343 332 311 296 303 310
285 285 283 278 271 263 250 237 234 234 229 215 210 209 206 211 222 228 237 250 264 287 320 333 341 349 350 338 338 341 342 343 348 356 355 343 306 293
Height
1479 1479 1479 1478 1478 1478 1478 1478 1478 1475 1474 1472 1472 1471 1471 1470 1469 1469 1468 1468 1467 1467 1466 1466 1466 1466 1467 1467 1468 1468 1468 1468 1468 1468 1469 1469 1469 1470
1476 1476 1475 1475 1475 1474 1474 1474 1474 1473 1471 1470 1468 1468 1467 1466 1466 1465 1465 1464 1464 1463 1463 1463 1462 1462 1463 1463 1463 1464 1464 1464 1464 1464 1464 1465 1465 1465
1472 1472 1472 1472 1471 1471 1471 1470 1470 1469 1468 1466 1465 1464 1463 1462 1462 1462 1461 1460 1460 1460 1459 1459 1458 1458 1458 1459 1459 1459 1459 1459 1459 1459 1459 1460 1460 1460
1469 1468 1468 1468 1467 1467 1467 1466 1466 1465 1464 1463 1461 1460 1460 1459 1458 1458 1457 1457 1456 1456 1455 1455 1454 1454 1455 1455 1455 1455 1455 1455 1455 1455 1455 1456 1456 1456
1465 1465 1464 1464 1463 1463 1463 1462 1461 1461 1460 1459 1458 1457 1456 1456 1455 1454 1454 1453 1453 1452 1452 1451 1451 1451 1452 1452 1451 1451 1451 1451 1451 1451 1451 1451 1451 1452
1461 1461 1461 1460 1460 1459 1459 1458 1458 1457 1457 1456 1455 1454 1453 1452 1452 1452 1451 1451 1450 1449 1449 1449 1448 1448 1448 1448 1448 1448 1447 1447 1447 1447 1447 1447 1447 1447
1458 1457 1457 1456 1456 1455 1455 1455 1454 1454 1453 1453 1452 1451 1450 1450 1449 1449 1448 1448 1447 1447 1446 1446 1446 1445 1445 1445 1444 1444 1444 1443 1443 1443 1443 1443 1443 1443
1454 1453 1453 1452 1452 1451 1451 1451 1451 1451 1450 1449 1449 1448 1448 1447 1447 1447 1446 1445 1445 1446 1445 1444 1444 1443 1442 1442 1441 1441 1441 1440 1440 1440 1440 1439 1439 1438
1451 1450 1449 1449 1449 1448 1448 1448 1447 1447 1447 1446 1445 1445 1445 1445 1445 1444 1444 1444 1443 1443 1443 1441 1441 1441 1440 1440 1439 1439 1438 1438 1437 1437 1436 1435 1435 1435
1448 1447 1447 1446 1446 1445 1445 1444 1444 1443 1443 1443 1443 1443 1443 1443 1443 1443 1442 1442 1442 1442 1441 1440 1439 1439 1438 1437 1437 1436 1436 1435 1435 1434 1433 1433 1432 1431
1445 1445 1444 1443 1443 1442 1442 1441 1440 1440 1440 1440 1440 1440 1440 1440 1440 1440 1440 1440 1439 1439 1439 1438 1437 1436 1435 1435 1435 1434 1433 1433 1433 1432 1431 1429 1428 1427
1442 1441 1441 1440 1440 1439 1439 1438 1437 1438 1438 1438 1438 1438 1438 1438 1438 1438 1438 1438 1437 1437 1437 1437 1436 1435 1434 1433 1433 1432 1431 1431 1430 1429 1428 1427 1426 1424
1439 1438 1438 1437 1436 1436 1436 1436 1435 1435 1435 1435 1435 1435 1436 1436 1436 1436 1436 1436 1436 1435 1436 1435 1434 1433 1433 1431 1430 1430 1429 1428 1427 1426 1425 1424 1424 1422
1436 1436 1435 1434 1434 1433 1433 1433 1433 1433 1433 1433 1433 1433 1433 1433 1433 1434 1434 1434 1434 1434 1434 1433 1432 1432 1431 1429 1428 1428 1427 1426 1425 1424 1423 1422 1421 1420
1433 1433 1432 1431 1431 1430 1430 1430 1431 1431 1431 1431 1431 1431 1431 1431 1431 1431 1431 1431 1431 1431 1431 1431 1430 1430 1429 1428 1426 1426 1424 1424 1423 1422 1421 1419 1418 1418
1430 1430 1429 1429 1428 1428 1428 1428 1428 1429 1429 1429 1429 1429 1429 1429 1429 1429 1429 1429 1429 1429 1429 1429 1429 1428 1427 1426 1425 1424 1423 1423 1422 1421 1419 1418 1417 1416
1428 1427 1427 1426 1426 1426 1426 1426 1427 1427 1427 1427 1427 1427 1427 1427 1428 1428 1428 1428 1427 1427 1427 1427 1427 1426 1425 1425 1423 1423 1422 1421 1421 1419 1418 1416 1415 1414
1426 1425 1425 1424 1424 1424 1424 1424 1425 1425 1425 1425 1425 1425 1426 1426 1426 1426 1427 1426 1426 1426 1426 1425 1425 1424 1424 1423 1424 1422 1421 1420 1419 1418 1417 1415 1413 1412
1424 1423 1423 1423 1423 1423 1423 1423 1423 1424 1424 1424 1424 1424 1424 1425 1425 1425 1425 1425 1425 1425 1424 1424 1424 1423 1422 1422 1422 1422 1421 1419 1418 1417 1416 1414 1412 1410
1422 1422 1422 1422 1422 1422 1422 1422 1422 1422 1423 1423 1423 1423 1423 1423 1423 1424 1424 1424 1424 1423 1423 1423 1422 1422 1422 1421 1420 1420 1420 1419 1417 1415 1414 1412 1411 1409
1421 1420 1420 1420 1420 1420 1421 1421 1421 1421 1421 1421 1421 1421 1422 1422 1422 1422 1423 1422 1423 1422 1422 1422 1421 1421 1420 1420 1419 1418 1418 1418 1416 1415 1413 1411 1409 1407
1419 1419 1419 1419 1419 1419 1419 1419 1419 1419 1420 1420 1420 1420 1420 1421 1421 1421 1421 1421 1421 1421 1421 1421 1420 1420 1420 1419 1418 1417 1416 1416 1415 1413 1412 1411 1409 1407
1418 1418 1417 1417 1417 1417 1417 1418 1418 1418 1418 1418 1418 1419 1419 1419 1420 1420 1420 1420 1420 1420 1420 1419 1419 1419 1419 1418 1418 1417 1415 1414 1413 1412 1411 1410 1409 1407